Time,TemperatureF,DewpointF,PressureIn,WindDirection,WindDirectionDegrees,WindSpeedMPH,WindSpeedGustMPH,Humidity,HourlyPrecipIn,Conditions,Clouds,dailyrainin,SoftwareType,DateUTC
2013-06-28 00:02:00,74.8,68.6,29.76,NW,317,14.0,15.0,81,0.00,,,0.01,Wunderground v.1.15,2013-06-28 05:02:00,
2013-06-28 00:07:00,74.8,68.6,29.76,WNW,301,13.0,16.0,81,0.00,,,0.01,Wunderground v.1.15,2013-06-28 05:07:00,
2013-06-28 00:12:00,74.8,68.6,29.75,WNW,288,11.0,12.0,81,0.00,,,0.01,Wunderground v.1.15,2013-06-28 05:12:00,
2013-06-28 00:17:00,74.7,68.5,29.75,WNW,303,9.0,13.0,81,0.00,,,0.01,Wunderground v.1.15,2013-06-28 05:17:00,
2013-06-28 00:22:00,74.7,68.5,29.76,WNW,288,8.0,10.0,81,0.00,,,0.01,Wunderground v.1.15,2013-06-28 05:22:00,
2013-06-28 00:27:00,74.7,68.5,29.76,NNW,332,10.0,10.0,81,0.00,,,0.01,Wunderground v.1.15,2013-06-28 05:27:00,
2013-06-28 00:32:00,74.6,68.4,29.75,WNW,287,8.0,9.0,81,0.00,,,0.01,Wunderground v.1.15,2013-06-28 05:32:00,
2013-06-28 00:37:00,74.4,68.2,29.76,West,273,8.0,9.0,81,0.00,,,0.01,Wunderground v.1.15,2013-06-28 05:37:00,
2013-06-28 00:42:00,74.4,68.2,29.75,West,275,9.0,10.0,81,0.00,,,0.01,Wunderground v.1.15,2013-06-28 05:42:00,
2013-06-28 00:47:00,74.2,68.3,29.76,West,267,12.0,12.0,82,0.00,,,0.01,Wunderground v.1.15,2013-06-28 05:47:00,
2013-06-28 00:52:00,74.3,68.4,29.76,West,270,9.0,10.0,82,0.00,,,0.01,Wunderground v.1.15,2013-06-28 05:52:00,
2013-06-28 00:57:00,74.5,68.3,29.76,West,276,9.0,11.0,81,0.00,,,0.01,Wunderground v.1.15,2013-06-28 05:57:00,
2013-06-28 01:02:00,74.6,68.0,29.76,West,272,8.0,10.0,80,0.00,,,0.01,Wunderground v.1.15,2013-06-28 06:02:00,
2013-06-28 01:07:00,74.6,68.0,29.76,West,277,9.0,11.0,80,0.00,,,0.01,Wunderground v.1.15,2013-06-28 06:07:00,
2013-06-28 01:12:00,74.6,68.0,29.77,West,267,11.0,12.0,80,0.00,,,0.01,Wunderground v.1.15,2013-06-28 06:12:00,
2013-06-28 01:17:00,74.2,68.0,29.77,West,268,12.0,13.0,81,0.00,,,0.01,Wunderground v.1.15,2013-06-28 06:17:00,
2013-06-28 01:22:00,74.1,67.9,29.76,West,271,11.0,12.0,81,0.00,,,0.01,Wunderground v.1.15,2013-06-28 06:22:00,
2013-06-28 01:27:00,74.0,67.8,29.77,West,269,11.0,13.0,81,0.00,,,0.01,Wunderground v.1.15,2013-06-28 06:27:00,
2013-06-28 01:32:00,73.9,68.1,29.77,West,269,10.0,12.0,82,0.00,,,0.01,Wunderground v.1.15,2013-06-28 06:32:00,
2013-06-28 01:37:00,73.7,67.9,29.77,West,267,11.0,12.0,82,0.00,,,0.01,Wunderground v.1.15,2013-06-28 06:37:00,
2013-06-28 01:42:00,73.8,68.0,29.76,West,276,11.0,12.0,82,0.00,,,0.01,Wunderground v.1.15,2013-06-28 06:42:00,
2013-06-28 01:47:00,74.0,67.8,29.76,WNW,293,10.0,12.0,81,0.00,,,0.01,Wunderground v.1.15,2013-06-28 06:47:00,
2013-06-28 01:53:00,74.2,68.0,29.76,West,273,9.0,11.0,81,0.00,,,0.01,Wunderground v.1.15,2013-06-28 06:53:00,
2013-06-28 01:58:00,74.0,67.8,29.76,West,266,10.0,11.0,81,0.00,,,0.01,Wunderground v.1.15,2013-06-28 06:58:00,
2013-06-28 02:03:00,73.9,68.1,29.76,WNW,297,7.0,9.0,82,0.00,,,0.00,Wunderground v.1.15,2013-06-28 07:03:00,
2013-06-28 02:08:00,74.0,67.8,29.76,WNW,286,9.0,10.0,81,0.00,,,0.00,Wunderground v.1.15,2013-06-28 07:08:00,
2013-06-28 02:14:00,73.8,68.0,29.76,West,266,11.0,11.0,82,0.00,,,0.00,Wunderground v.1.15,2013-06-28 07:14:00,
2013-06-28 02:20:00,73.1,67.6,29.76,WSW,257,11.0,11.0,83,0.00,,,0.00,Wunderground v.1.15,2013-06-28 07:20:00,
2013-06-28 02:26:00,73.4,67.9,29.76,West,272,8.0,11.0,83,0.00,,,0.00,Wunderground v.1.15,2013-06-28 07:26:00,
2013-06-28 02:32:00,73.6,67.8,29.76,WNW,282,8.0,11.0,82,0.00,,,0.00,Wunderground v.1.15,2013-06-28 07:32:00,
2013-06-28 02:37:00,73.7,67.9,29.76,West,263,9.0,11.0,82,0.00,,,0.00,Wunderground v.1.15,2013-06-28 07:37:00,
2013-06-28 02:43:00,74.0,67.4,29.76,WNW,284,11.0,12.0,80,0.00,,,0.00,Wunderground v.1.15,2013-06-28 07:43:00,
2013-06-28 02:48:00,74.2,67.6,29.76,WNW,292,12.0,12.0,80,0.00,,,0.00,Wunderground v.1.15,2013-06-28 07:48:00,
2013-06-28 02:54:00,74.2,66.9,29.76,WNW,282,12.0,12.0,78,0.00,,,0.00,Wunderground v.1.15,2013-06-28 07:54:00,
2013-06-28 02:59:00,74.4,67.1,29.75,NW,309,11.0,14.0,78,0.00,,,0.00,Wunderground v.1.15,2013-06-28 07:59:00,
2013-06-28 03:05:00,74.4,66.7,29.75,NW,317,11.0,13.0,77,0.00,,,0.00,Wunderground v.1.15,2013-06-28 08:05:00,
2013-06-28 03:10:00,74.4,66.7,29.75,NW,305,12.0,12.0,77,0.00,,,0.00,Wunderground v.1.15,2013-06-28 08:10:00,
2013-06-28 03:16:00,74.6,66.5,29.75,WNW,300,13.0,17.0,76,0.00,,,0.00,Wunderground v.1.15,2013-06-28 08:16:00,
2013-06-28 03:22:00,74.5,66.8,29.76,NW,310,10.0,13.0,77,0.00,,,0.00,Wunderground v.1.15,2013-06-28 08:22:00,
2013-06-28 03:27:00,74.4,66.7,29.76,WNW,300,8.0,13.0,77,0.00,,,0.00,Wunderground v.1.15,2013-06-28 08:27:00,
2013-06-28 03:33:00,74.4,66.7,29.76,WNW,290,11.0,11.0,77,0.00,,,0.00,Wunderground v.1.15,2013-06-28 08:33:00,
2013-06-28 03:38:00,74.1,66.4,29.76,WNW,294,7.0,11.0,77,0.00,,,0.00,Wunderground v.1.15,2013-06-28 08:38:00,
2013-06-28 03:44:00,74.1,66.4,29.76,West,279,6.0,12.0,77,0.00,,,0.00,Wunderground v.1.15,2013-06-28 08:44:00,
2013-06-28 03:50:00,74.3,66.6,29.75,West,275,9.0,9.0,77,0.00,,,0.00,Wunderground v.1.15,2013-06-28 08:50:00,
2013-06-28 03:56:00,74.4,66.3,29.75,West,267,10.0,11.0,76,0.00,,,0.00,Wunderground v.1.15,2013-06-28 08:56:00,
2013-06-28 04:01:00,74.4,66.3,29.75,NW,318,10.0,10.0,76,0.00,,,0.00,Wunderground v.1.15,2013-06-28 09:01:00,
2013-06-28 04:06:00,74.3,66.2,29.75,NW,309,11.0,13.0,76,0.00,,,0.00,Wunderground v.1.15,2013-06-28 09:06:00,
2013-06-28 04:11:00,74.3,66.2,29.75,NW,304,7.0,10.0,76,0.00,,,0.00,Wunderground v.1.15,2013-06-28 09:11:00,
2013-06-28 04:16:00,74.3,66.2,29.75,WNW,289,8.0,12.0,76,0.00,,,0.00,Wunderground v.1.15,2013-06-28 09:16:00,
2013-06-28 04:21:00,74.6,66.5,29.75,NW,309,11.0,14.0,76,0.00,,,0.00,Wunderground v.1.15,2013-06-28 09:21:00,
2013-06-28 04:26:00,74.7,66.6,29.75,NW,311,8.0,14.0,76,0.00,,,0.00,Wunderground v.1.15,2013-06-28 09:26:00,
2013-06-28 04:31:00,74.6,66.5,29.75,WNW,288,10.0,14.0,76,0.00,,,0.00,Wunderground v.1.15,2013-06-28 09:31:00,
2013-06-28 04:36:00,74.7,65.9,29.75,WNW,288,7.0,14.0,74,0.00,,,0.00,Wunderground v.1.15,2013-06-28 09:36:00,
2013-06-28 04:41:00,74.7,66.2,29.75,NW,311,5.0,8.0,75,0.00,,,0.00,Wunderground v.1.15,2013-06-28 09:41:00,
2013-06-28 04:46:00,74.3,66.2,29.75,WNW,302,10.0,11.0,76,0.00,,,0.00,Wunderground v.1.15,2013-06-28 09:46:00,
2013-06-28 04:51:00,74.4,66.0,29.74,West,279,7.0,8.0,75,0.00,,,0.00,Wunderground v.1.15,2013-06-28 09:51:00,
2013-06-28 04:56:00,74.4,65.6,29.74,WNW,284,9.0,11.0,74,0.00,,,0.00,Wunderground v.1.15,2013-06-28 09:56:00,
2013-06-28 05:01:00,74.5,66.1,29.74,NW,308,8.0,11.0,75,0.00,,,0.00,Wunderground v.1.15,2013-06-28 10:01:00,
2013-06-28 05:06:00,74.2,65.8,29.74,WNW,293,11.0,17.0,75,0.00,,,0.00,Wunderground v.1.15,2013-06-28 10:06:00,
2013-06-28 05:11:00,74.3,65.9,29.75,WNW,290,11.0,11.0,75,0.00,,,0.00,Wunderground v.1.15,2013-06-28 10:11:00,
2013-06-28 05:16:00,74.0,65.6,29.75,NW,306,8.0,12.0,75,0.00,,,0.00,Wunderground v.1.15,2013-06-28 10:16:00,
2013-06-28 05:21:00,73.7,65.3,29.75,WNW,290,11.0,15.0,75,0.00,,,0.00,Wunderground v.1.15,2013-06-28 10:21:00,
2013-06-28 05:26:00,74.2,65.4,29.75,West,278,11.0,15.0,74,0.00,,,0.00,Wunderground v.1.15,2013-06-28 10:26:00,
2013-06-28 05:31:00,74.2,65.4,29.75,NW,319,12.0,13.0,74,0.00,,,0.00,Wunderground v.1.15,2013-06-28 10:31:00,
2013-06-28 05:36:00,74.2,65.0,29.75,NW,304,6.0,13.0,73,0.00,,,0.00,Wunderground v.1.15,2013-06-28 10:36:00,
2013-06-28 05:42:00,74.1,65.3,29.75,NW,313,10.0,14.0,74,0.00,,,0.00,Wunderground v.1.15,2013-06-28 10:42:00,
2013-06-28 05:47:00,74.0,65.2,29.75,NW,325,10.0,15.0,74,0.00,,,0.00,Wunderground v.1.15,2013-06-28 10:47:00,
2013-06-28 05:52:00,74.0,65.6,29.75,WNW,293,10.0,12.0,75,0.00,,,0.00,Wunderground v.1.15,2013-06-28 10:52:00,
2013-06-28 05:57:00,74.0,65.2,29.74,WNW,288,9.0,13.0,74,0.00,,,0.00,Wunderground v.1.15,2013-06-28 10:57:00,
2013-06-28 06:02:00,74.0,65.2,29.74,NW,319,8.0,12.0,74,0.00,,,0.00,Wunderground v.1.15,2013-06-28 11:02:00,
2013-06-28 06:07:00,74.1,65.3,29.74,WNW,303,8.0,12.0,74,0.00,,,0.00,Wunderground v.1.15,2013-06-28 11:07:00,
2013-06-28 06:12:00,74.1,65.3,29.74,WNW,288,5.0,10.0,74,0.00,,,0.00,Wunderground v.1.15,2013-06-28 11:12:00,
2013-06-28 06:17:00,73.8,65.0,29.75,WNW,289,6.0,11.0,74,0.00,,,0.00,Wunderground v.1.15,2013-06-28 11:17:00,
2013-06-28 06:22:00,74.1,64.5,29.75,WNW,284,10.0,11.0,72,0.00,,,0.00,Wunderground v.1.15,2013-06-28 11:22:00,
2013-06-28 06:27:00,74.4,64.8,29.75,WNW,297,6.0,12.0,72,0.00,,,0.00,Wunderground v.1.15,2013-06-28 11:27:00,
2013-06-28 06:32:00,74.4,64.8,29.75,WNW,285,7.0,12.0,72,0.00,,,0.00,Wunderground v.1.15,2013-06-28 11:32:00,
2013-06-28 06:37:00,74.2,65.0,29.75,West,281,10.0,12.0,73,0.00,,,0.00,Wunderground v.1.15,2013-06-28 11:37:00,
2013-06-28 06:42:00,73.9,64.7,29.75,West,275,8.0,12.0,73,0.00,,,0.00,Wunderground v.1.15,2013-06-28 11:42:00,
2013-06-28 06:47:00,74.0,64.8,29.75,West,271,7.0,12.0,73,0.00,,,0.00,Wunderground v.1.15,2013-06-28 11:47:00,
2013-06-28 06:52:00,74.6,64.6,29.74,WNW,288,10.0,11.0,71,0.00,,,0.00,Wunderground v.1.15,2013-06-28 11:52:00,
2013-06-28 06:57:00,75.4,64.1,29.74,West,279,9.0,12.0,68,0.00,,,0.00,Wunderground v.1.15,2013-06-28 11:57:00,
2013-06-28 07:02:00,75.3,64.4,29.75,West,267,8.0,10.0,69,0.00,,,0.00,Wunderground v.1.15,2013-06-28 12:02:00,
2013-06-28 07:07:00,74.8,65.2,29.75,WSW,248,8.0,10.0,72,0.00,,,0.00,Wunderground v.1.15,2013-06-28 12:07:00,
2013-06-28 07:12:00,74.1,64.9,29.75,WSW,243,9.0,9.0,73,0.00,,,0.00,Wunderground v.1.15,2013-06-28 12:12:00,
2013-06-28 07:17:00,73.7,65.7,29.75,WSW,244,7.0,10.0,76,0.00,,,0.00,Wunderground v.1.15,2013-06-28 12:17:00,
2013-06-28 07:22:00,73.3,64.9,29.75,WSW,243,10.0,12.0,75,0.00,,,0.00,Wunderground v.1.15,2013-06-28 12:22:00,
2013-06-28 07:27:00,73.0,65.0,29.75,WSW,242,9.0,12.0,76,0.00,,,0.00,Wunderground v.1.15,2013-06-28 12:27:00,
2013-06-28 07:32:00,73.1,64.7,29.75,WSW,237,11.0,12.0,75,0.00,,,0.00,Wunderground v.1.15,2013-06-28 12:32:00,
2013-06-28 07:37:00,73.3,64.9,29.74,SW,234,10.0,14.0,75,0.00,,,0.00,Wunderground v.1.15,2013-06-28 12:37:00,
2013-06-28 07:42:00,73.1,65.1,29.75,SW,217,10.0,13.0,76,0.00,,,0.00,Wunderground v.1.15,2013-06-28 12:42:00,
2013-06-28 07:47:00,72.8,65.2,29.75,SW,229,9.0,14.0,77,0.00,,,0.00,Wunderground v.1.15,2013-06-28 12:47:00,
2013-06-28 07:52:00,72.6,65.3,29.75,SW,219,8.0,14.0,78,0.00,,,0.00,Wunderground v.1.15,2013-06-28 12:52:00,
2013-06-28 07:57:00,72.6,65.3,29.74,SW,226,11.0,14.0,78,0.00,,,0.00,Wunderground v.1.15,2013-06-28 12:57:00,
2013-06-28 08:02:00,72.7,65.4,29.75,WSW,238,11.0,14.0,78,0.00,,,0.00,Wunderground v.1.15,2013-06-28 13:02:00,
2013-06-28 08:07:00,72.8,65.5,29.75,SW,230,8.0,15.0,78,0.00,,,0.00,Wunderground v.1.15,2013-06-28 13:07:00,
2013-06-28 08:12:00,72.8,65.9,29.75,WSW,242,12.0,14.0,79,0.00,,,0.00,Wunderground v.1.15,2013-06-28 13:12:00,
2013-06-28 08:17:00,72.9,66.0,29.74,WSW,240,13.0,15.0,79,0.00,,,0.00,Wunderground v.1.15,2013-06-28 13:17:00,
2013-06-28 08:22:00,73.5,65.8,29.74,WSW,248,12.0,15.0,77,0.00,,,0.00,Wunderground v.1.15,2013-06-28 13:22:00,
2013-06-28 08:27:00,73.7,66.0,29.74,SW,236,11.0,15.0,77,0.00,,,0.00,Wunderground v.1.15,2013-06-28 13:27:00,
2013-06-28 08:33:00,73.7,66.0,29.75,WSW,251,14.0,14.0,77,0.00,,,0.00,Wunderground v.1.15,2013-06-28 13:33:00,
2013-06-28 08:38:00,73.8,65.8,29.74,WSW,246,13.0,15.0,76,0.00,,,0.00,Wunderground v.1.15,2013-06-28 13:38:00,
2013-06-28 08:43:00,74.2,65.8,29.74,WSW,255,12.0,14.0,75,0.00,,,0.00,Wunderground v.1.15,2013-06-28 13:43:00,
2013-06-28 08:48:00,74.3,65.9,29.74,WSW,258,10.0,14.0,75,0.00,,,0.00,Wunderground v.1.15,2013-06-28 13:48:00,
2013-06-28 08:53:00,74.3,65.9,29.74,WSW,247,13.0,13.0,75,0.00,,,0.00,Wunderground v.1.15,2013-06-28 13:53:00,
2013-06-28 08:58:00,74.6,66.1,29.74,WSW,248,10.0,14.0,75,0.00,,,0.00,Wunderground v.1.15,2013-06-28 13:58:00,
2013-06-28 09:03:00,74.7,65.9,29.74,WSW,242,12.0,13.0,74,0.00,,,0.00,Wunderground v.1.15,2013-06-28 14:03:00,
2013-06-28 09:08:00,74.8,66.0,29.73,West,261,8.0,14.0,74,0.00,,,0.00,Wunderground v.1.15,2013-06-28 14:08:00,
2013-06-28 09:13:00,74.9,66.1,29.73,West,266,6.0,13.0,74,0.00,,,0.00,Wunderground v.1.15,2013-06-28 14:13:00,
2013-06-28 09:18:00,75.1,65.5,29.73,WSW,249,10.0,13.0,72,0.00,,,0.00,Wunderground v.1.15,2013-06-28 14:18:00,
2013-06-28 09:23:00,75.3,66.0,29.72,WSW,253,10.0,11.0,73,0.00,,,0.00,Wunderground v.1.15,2013-06-28 14:23:00,
2013-06-28 09:28:00,75.3,66.0,29.72,WSW,257,7.0,12.0,73,0.00,,,0.00,Wunderground v.1.15,2013-06-28 14:28:00,
2013-06-28 09:33:00,75.4,65.7,29.72,West,265,8.0,12.0,72,0.00,,,0.00,Wunderground v.1.15,2013-06-28 14:33:00,
2013-06-28 09:38:00,75.5,66.2,29.72,SW,234,11.0,13.0,73,0.00,,,0.00,Wunderground v.1.15,2013-06-28 14:38:00,
2013-06-28 09:43:00,75.5,66.2,29.72,WSW,249,8.0,11.0,73,0.00,,,0.00,Wunderground v.1.15,2013-06-28 14:43:00,
2013-06-28 09:48:00,75.8,65.7,29.72,West,273,6.0,12.0,71,0.00,,,0.00,Wunderground v.1.15,2013-06-28 14:48:00,
2013-06-28 09:53:00,76.1,66.0,29.72,West,263,12.0,12.0,71,0.00,,,0.00,Wunderground v.1.15,2013-06-28 14:53:00,
2013-06-28 09:58:00,76.4,65.9,29.72,West,279,9.0,13.0,70,0.00,,,0.00,Wunderground v.1.15,2013-06-28 14:58:00,
2013-06-28 09:59:00,76.4,66.7,29.72,WNW,284,7.0,13.0,72,0.00,,,0.00,Wunderground v.1.15,2013-06-28 14:59:00,
2013-06-28 10:04:00,76.3,66.6,29.72,WSW,245,10.0,13.0,72,0.00,,,0.00,Wunderground v.1.15,2013-06-28 15:04:00,
2013-06-28 10:09:00,76.3,67.4,29.72,West,263,8.0,13.0,74,0.00,,,0.00,Wunderground v.1.15,2013-06-28 15:09:00,
2013-06-28 10:14:00,76.4,67.1,29.72,WSW,240,10.0,12.0,73,0.00,,,0.00,Wunderground v.1.15,2013-06-28 15:14:00,
2013-06-28 10:19:00,76.4,66.7,29.72,NW,305,10.0,12.0,72,0.00,,,0.00,Wunderground v.1.15,2013-06-28 15:19:00,
2013-06-28 10:24:00,76.6,66.1,29.72,SW,234,7.0,12.0,70,0.00,,,0.00,Wunderground v.1.15,2013-06-28 15:24:00,
2013-06-28 10:29:00,76.7,67.4,29.72,WNW,300,6.0,12.0,73,0.00,,,0.00,Wunderground v.1.15,2013-06-28 15:29:00,
2013-06-28 10:34:00,76.7,68.2,29.72,WSW,250,9.0,10.0,75,0.00,,,0.00,Wunderground v.1.15,2013-06-28 15:34:00,
2013-06-28 10:39:00,76.8,68.7,29.72,WSW,252,7.0,11.0,76,0.00,,,0.00,Wunderground v.1.15,2013-06-28 15:39:00,
2013-06-28 10:44:00,77.0,67.7,29.72,WSW,244,6.0,12.0,73,0.00,,,0.00,Wunderground v.1.15,2013-06-28 15:44:00,
2013-06-28 10:49:00,77.1,67.8,29.72,West,265,6.0,13.0,73,0.00,,,0.00,Wunderground v.1.15,2013-06-28 15:49:00,
2013-06-28 10:54:00,77.5,68.9,29.72,NNW,327,11.0,11.0,75,0.00,,,0.00,Wunderground v.1.15,2013-06-28 15:54:00,
2013-06-28 10:59:00,77.7,69.1,29.72,West,273,11.0,12.0,75,0.00,,,0.00,Wunderground v.1.15,2013-06-28 15:59:00,
2013-06-28 11:04:00,77.9,68.5,29.72,West,281,7.0,16.0,73,0.00,,,0.00,Wunderground v.1.15,2013-06-28 16:04:00,
2013-06-28 11:09:00,78.0,69.4,29.72,WSW,257,9.0,16.0,75,0.00,,,0.00,Wunderground v.1.15,2013-06-28 16:09:00,
2013-06-28 11:14:00,78.1,67.9,29.71,West,281,14.0,18.0,71,0.00,,,0.00,Wunderground v.1.15,2013-06-28 16:14:00,
2013-06-28 11:19:00,78.4,69.8,29.71,WNW,300,8.0,19.0,75,0.00,,,0.00,Wunderground v.1.15,2013-06-28 16:19:00,
2013-06-28 11:24:00,78.1,69.1,29.71,WNW,283,11.0,19.0,74,0.00,,,0.00,Wunderground v.1.15,2013-06-28 16:24:00,
2013-06-28 11:29:00,77.9,70.1,29.71,West,272,11.0,19.0,77,0.00,,,0.00,Wunderground v.1.15,2013-06-28 16:29:00,
2013-06-28 11:34:00,77.9,70.5,29.71,WNW,289,11.0,17.0,78,0.00,,,0.00,Wunderground v.1.15,2013-06-28 16:34:00,
2013-06-28 11:40:00,78.1,71.1,29.70,West,276,15.0,15.0,79,0.00,,,0.00,Wunderground v.1.15,2013-06-28 16:40:00,
2013-06-28 11:45:00,78.0,71.3,29.70,WSW,251,15.0,18.0,80,0.00,,,0.00,Wunderground v.1.15,2013-06-28 16:45:00,
2013-06-28 11:50:00,78.1,71.1,29.70,West,266,10.0,12.0,79,0.00,,,0.00,Wunderground v.1.15,2013-06-28 16:50:00,
2013-06-28 11:55:00,78.2,71.5,29.70,West,261,13.0,15.0,80,0.00,,,0.00,Wunderground v.1.15,2013-06-28 16:55:00,
2013-06-28 12:00:00,78.3,72.0,29.70,West,267,12.0,12.0,81,0.00,,,0.00,Wunderground v.1.15,2013-06-28 17:00:00,
2013-06-28 12:05:00,78.4,71.7,29.69,WNW,298,6.0,15.0,80,0.00,,,0.00,Wunderground v.1.15,2013-06-28 17:05:00,
2013-06-28 12:10:00,78.8,72.1,29.69,WNW,296,9.0,11.0,80,0.00,,,0.00,Wunderground v.1.15,2013-06-28 17:10:00,
2013-06-28 12:15:00,79.0,71.2,29.69,WNW,289,14.0,21.0,77,0.00,,,0.00,Wunderground v.1.15,2013-06-28 17:15:00,
2013-06-28 12:20:00,79.3,70.7,29.69,WSW,251,11.0,13.0,75,0.00,,,0.00,Wunderground v.1.15,2013-06-28 17:20:00,
2013-06-28 12:25:00,79.5,70.5,29.68,West,273,14.0,18.0,74,0.00,,,0.00,Wunderground v.1.15,2013-06-28 17:25:00,
2013-06-28 12:30:00,79.4,70.8,29.67,WSW,249,8.0,12.0,75,0.00,,,0.00,Wunderground v.1.15,2013-06-28 17:30:00,
2013-06-28 12:35:00,79.7,71.1,29.67,West,275,8.0,13.0,75,0.00,,,0.00,Wunderground v.1.15,2013-06-28 17:35:00,
2013-06-28 12:40:00,79.9,71.3,29.67,WNW,282,8.0,13.0,75,0.00,,,0.00,Wunderground v.1.15,2013-06-28 17:40:00,
2013-06-28 12:45:00,80.3,71.6,29.67,WNW,286,12.0,13.0,75,0.00,,,0.00,Wunderground v.1.15,2013-06-28 17:45:00,
2013-06-28 12:50:00,80.4,71.7,29.66,WNW,298,17.0,17.0,75,0.00,,,0.00,Wunderground v.1.15,2013-06-28 17:50:00,
2013-06-28 12:55:00,80.4,71.3,29.66,West,272,11.0,17.0,74,0.00,,,0.00,Wunderground v.1.15,2013-06-28 17:55:00,
2013-06-28 13:00:00,80.8,72.5,29.66,WNW,294,15.0,16.0,76,0.00,,,0.00,Wunderground v.1.15,2013-06-28 18:00:00,
2013-06-28 13:05:00,80.2,69.5,29.66,WNW,292,21.0,21.0,70,0.00,,,0.00,Wunderground v.1.15,2013-06-28 18:05:00,
2013-06-28 13:11:00,78.8,69.0,29.65,WNW,294,12.0,21.0,72,0.00,,,0.00,Wunderground v.1.15,2013-06-28 18:11:00,
2013-06-28 13:16:00,78.4,69.4,29.65,NW,314,10.0,21.0,74,0.00,,,0.00,Wunderground v.1.15,2013-06-28 18:16:00,
2013-06-28 13:21:00,78.5,69.9,29.65,NW,320,21.0,22.0,75,0.00,,,0.00,Wunderground v.1.15,2013-06-28 18:21:00,
2013-06-28 13:26:00,78.5,69.1,29.65,NW,304,18.0,22.0,73,0.00,,,0.00,Wunderground v.1.15,2013-06-28 18:26:00,
2013-06-28 13:31:00,78.4,68.6,29.65,WNW,301,16.0,17.0,72,0.00,,,0.00,Wunderground v.1.15,2013-06-28 18:31:00,
2013-06-28 13:36:00,78.2,69.2,29.65,WNW,284,15.0,17.0,74,0.00,,,0.00,Wunderground v.1.15,2013-06-28 18:36:00,
2013-06-28 13:41:00,78.1,69.1,29.65,WNW,298,11.0,16.0,74,0.00,,,0.00,Wunderground v.1.15,2013-06-28 18:41:00,
2013-06-28 13:46:00,78.3,69.3,29.65,WNW,303,14.0,16.0,74,0.00,,,0.00,Wunderground v.1.15,2013-06-28 18:46:00,
2013-06-28 13:51:00,78.5,69.9,29.65,NW,317,11.0,15.0,75,0.00,,,0.00,Wunderground v.1.15,2013-06-28 18:51:00,
2013-06-28 13:56:00,78.5,69.1,29.64,NW,313,7.0,17.0,73,0.00,,,0.00,Wunderground v.1.15,2013-06-28 18:56:00,
2013-06-28 14:01:00,78.5,70.3,29.64,NW,306,16.0,16.0,76,0.00,,,0.00,Wunderground v.1.15,2013-06-28 19:01:00,
2013-06-28 14:06:00,78.1,69.9,29.64,NW,311,15.0,19.0,76,0.00,,,0.00,Wunderground v.1.15,2013-06-28 19:06:00,
2013-06-28 14:11:00,78.0,69.4,29.64,WNW,298,8.0,18.0,75,0.00,,,0.00,Wunderground v.1.15,2013-06-28 19:11:00,
2013-06-28 14:16:00,77.9,69.3,29.64,NNE,17,10.0,21.0,75,0.00,,,0.00,Wunderground v.1.15,2013-06-28 19:16:00,
2013-06-28 14:21:00,77.8,69.2,29.63,NW,321,15.0,15.0,75,0.00,,,0.00,Wunderground v.1.15,2013-06-28 19:21:00,
2013-06-28 14:26:00,77.7,68.7,29.63,WNW,297,18.0,22.0,74,0.00,,,0.00,Wunderground v.1.15,2013-06-28 19:26:00,
2013-06-28 14:31:00,77.4,68.9,29.63,West,279,8.0,19.0,75,0.00,,,0.00,Wunderground v.1.15,2013-06-28 19:31:00,
2013-06-28 14:36:00,77.1,68.2,29.63,WNW,282,15.0,22.0,74,0.00,,,0.00,Wunderground v.1.15,2013-06-28 19:36:00,
2013-06-28 14:41:00,76.7,68.2,29.63,NW,306,16.0,18.0,75,0.00,,,0.00,Wunderground v.1.15,2013-06-28 19:41:00,
2013-06-28 14:46:00,76.6,67.3,29.64,West,275,17.0,24.0,73,0.00,,,0.00,Wunderground v.1.15,2013-06-28 19:46:00,
2013-06-28 14:51:00,76.6,68.1,29.63,WNW,292,17.0,20.0,75,0.00,,,0.00,Wunderground v.1.15,2013-06-28 19:51:00,
2013-06-28 14:56:00,76.5,68.0,29.62,WNW,284,20.0,21.0,75,0.00,,,0.00,Wunderground v.1.15,2013-06-28 19:56:00,
2013-06-28 15:01:00,76.6,68.5,29.63,WNW,287,16.0,17.0,76,0.00,,,0.00,Wunderground v.1.15,2013-06-28 20:01:00,
2013-06-28 15:06:00,76.7,68.2,29.62,West,277,13.0,20.0,75,0.00,,,0.00,Wunderground v.1.15,2013-06-28 20:06:00,
2013-06-28 15:11:00,76.8,67.9,29.62,WNW,297,13.0,21.0,74,0.00,,,0.00,Wunderground v.1.15,2013-06-28 20:11:00,
2013-06-28 15:16:00,76.6,68.1,29.62,WNW,284,15.0,21.0,75,0.00,,,0.00,Wunderground v.1.15,2013-06-28 20:16:00,
2013-06-28 15:21:00,76.7,68.6,29.62,WNW,288,16.0,19.0,76,0.00,,,0.00,Wunderground v.1.15,2013-06-28 20:21:00,
2013-06-28 15:27:00,76.6,68.1,29.61,NE,51,7.0,20.0,75,0.00,,,0.00,Wunderground v.1.15,2013-06-28 20:27:00,
2013-06-28 15:32:00,76.4,67.5,29.61,West,278,18.0,18.0,74,0.00,,,0.00,Wunderground v.1.15,2013-06-28 20:32:00,
2013-06-28 15:36:00,76.2,67.3,29.61,WNW,294,14.0,18.0,74,0.00,,,0.00,Wunderground v.1.15,2013-06-28 20:36:00,
2013-06-28 15:42:00,76.3,68.2,29.61,West,277,8.0,17.0,76,0.00,,,0.00,Wunderground v.1.15,2013-06-28 20:42:00,
2013-06-28 15:46:00,76.1,67.2,29.61,WNW,286,10.0,18.0,74,0.00,,,0.00,Wunderground v.1.15,2013-06-28 20:46:00,
2013-06-28 15:52:00,75.8,67.7,29.61,WNW,285,11.0,17.0,76,0.00,,,0.00,Wunderground v.1.15,2013-06-28 20:52:00,
2013-06-28 15:57:00,75.9,68.2,29.61,West,260,10.0,17.0,77,0.00,,,0.00,Wunderground v.1.15,2013-06-28 20:57:00,
2013-06-28 16:02:00,75.7,68.0,29.61,WSW,257,16.0,17.0,77,0.00,,,0.00,Wunderground v.1.15,2013-06-28 21:02:00,
2013-06-28 16:07:00,75.5,67.8,29.61,West,267,6.0,19.0,77,0.00,,,0.00,Wunderground v.1.15,2013-06-28 21:07:00,
2013-06-28 16:12:00,75.4,67.3,29.60,West,277,12.0,17.0,76,0.00,,,0.00,Wunderground v.1.15,2013-06-28 21:12:00,
2013-06-28 16:17:00,75.3,68.0,29.61,WNW,296,11.0,17.0,78,0.00,,,0.00,Wunderground v.1.15,2013-06-28 21:17:00,
2013-06-28 16:22:00,75.0,67.7,29.61,West,281,10.0,13.0,78,0.00,,,0.00,Wunderground v.1.15,2013-06-28 21:22:00,
2013-06-28 16:27:00,75.0,67.7,29.61,WNW,284,8.0,15.0,78,0.00,,,0.00,Wunderground v.1.15,2013-06-28 21:27:00,
2013-06-28 16:32:00,75.0,68.0,29.61,West,263,9.0,9.0,79,0.00,,,0.00,Wunderground v.1.15,2013-06-28 21:32:00,
2013-06-28 16:37:00,74.8,67.8,29.61,West,273,9.0,14.0,79,0.00,,,0.00,Wunderground v.1.15,2013-06-28 21:37:00,
2013-06-28 16:42:00,74.8,68.2,29.61,WSW,248,5.0,12.0,80,0.00,,,0.00,Wunderground v.1.15,2013-06-28 21:42:00,
2013-06-28 16:47:00,74.7,68.1,29.61,West,268,4.0,12.0,80,0.00,,,0.00,Wunderground v.1.15,2013-06-28 21:47:00,
2013-06-28 16:53:00,74.7,68.1,29.61,WSW,252,10.0,10.0,80,0.00,,,0.00,Wunderground v.1.15,2013-06-28 21:53:00,
2013-06-28 16:58:00,74.5,68.3,29.61,North,350,12.0,13.0,81,0.00,,,0.00,Wunderground v.1.15,2013-06-28 21:58:00,
2013-06-28 17:03:00,73.7,67.5,29.61,NW,315,9.0,13.0,81,0.00,,,0.00,Wunderground v.1.15,2013-06-28 22:03:00,
2013-06-28 17:08:00,73.1,67.3,29.61,NW,323,9.0,13.0,82,0.00,,,0.00,Wunderground v.1.15,2013-06-28 22:08:00,
2013-06-28 17:13:00,72.6,66.8,29.61,NW,319,11.0,13.0,82,0.00,,,0.00,Wunderground v.1.15,2013-06-28 22:13:00,
2013-06-28 17:18:00,71.5,67.1,29.62,WNW,294,16.0,26.0,86,1.60,,,0.08,Wunderground v.1.15,2013-06-28 22:18:00,
2013-06-28 17:23:00,69.4,66.0,29.62,NW,311,18.0,23.0,89,0.53,,,0.13,Wunderground v.1.15,2013-06-28 22:23:00,
2013-06-28 17:28:00,68.4,65.7,29.62,WNW,294,12.0,23.0,91,0.26,,,0.17,Wunderground v.1.15,2013-06-28 22:28:00,
2013-06-28 17:33:00,67.9,64.9,29.62,North,355,9.0,13.0,90,0.68,,,0.19,Wunderground v.1.15,2013-06-28 22:33:00,
2013-06-28 17:38:00,67.2,63.5,29.61,WNW,303,5.0,14.0,88,0.92,,,0.24,Wunderground v.1.15,2013-06-28 22:38:00,
2013-06-28 17:43:00,67.0,64.0,29.61,SW,226,0.0,9.0,90,0.13,,,0.25,Wunderground v.1.15,2013-06-28 22:43:00,
2013-06-28 17:48:00,67.6,64.9,29.61,NW,311,3.0,9.0,91,0.06,,,0.25,Wunderground v.1.15,2013-06-28 22:48:00,
2013-06-28 17:53:00,68.6,65.9,29.60,NNW,331,6.0,7.0,91,0.04,,,0.25,Wunderground v.1.15,2013-06-28 22:53:00,
2013-06-28 17:58:00,68.9,65.5,29.61,West,277,7.0,9.0,89,0.00,,,0.25,Wunderground v.1.15,2013-06-28 22:58:00,
2013-06-28 18:03:00,68.5,65.4,29.61,WSW,247,6.0,7.0,90,0.00,,,0.25,Wunderground v.1.15,2013-06-28 23:03:00,
2013-06-28 18:08:00,68.6,65.2,29.61,WSW,244,5.0,7.0,89,0.00,,,0.25,Wunderground v.1.15,2013-06-28 23:08:00,
2013-06-28 18:13:00,68.8,65.1,29.61,WNW,286,5.0,7.0,88,0.00,,,0.25,Wunderground v.1.15,2013-06-28 23:13:00,
2013-06-28 18:18:00,69.3,65.6,29.61,WNW,284,6.0,7.0,88,0.00,,,0.25,Wunderground v.1.15,2013-06-28 23:18:00,
2013-06-28 18:23:00,69.2,65.8,29.61,WNW,283,5.0,7.0,89,0.00,,,0.25,Wunderground v.1.15,2013-06-28 23:23:00,
2013-06-28 18:28:00,69.2,66.1,29.61,West,259,5.0,7.0,90,0.00,,,0.25,Wunderground v.1.15,2013-06-28 23:28:00,
2013-06-28 18:33:00,69.7,66.6,29.62,WSW,254,6.0,6.0,90,0.00,,,0.25,Wunderground v.1.15,2013-06-28 23:33:00,
2013-06-28 18:38:00,70.2,67.1,29.62,West,272,8.0,8.0,90,0.00,,,0.25,Wunderground v.1.15,2013-06-28 23:38:00,
2013-06-28 18:43:00,70.5,67.1,29.62,West,261,6.0,8.0,89,0.00,,,0.25,Wunderground v.1.15,2013-06-28 23:43:00,
2013-06-28 18:49:00,70.9,67.5,29.62,West,273,4.0,8.0,89,0.00,,,0.25,Wunderground v.1.15,2013-06-28 23:49:00,
2013-06-28 18:54:00,71.4,67.7,29.62,West,273,4.0,7.0,88,0.00,,,0.25,Wunderground v.1.15,2013-06-28 23:54:00,
2013-06-28 18:59:00,71.7,67.6,29.62,West,263,5.0,7.0,87,0.00,,,0.25,Wunderground v.1.15,2013-06-28 23:59:00,
2013-06-28 19:04:00,71.9,68.2,29.62,West,268,2.0,5.0,88,0.00,,,0.25,Wunderground v.1.15,2013-06-29 00:04:00,
2013-06-28 19:09:00,71.8,68.1,29.63,WSW,246,5.0,6.0,88,0.00,,,0.25,Wunderground v.1.15,2013-06-29 00:09:00,
2013-06-28 19:14:00,71.7,68.0,29.63,WSW,253,4.0,5.0,88,0.00,,,0.25,Wunderground v.1.15,2013-06-29 00:14:00,
2013-06-28 19:19:00,71.8,68.1,29.63,West,265,5.0,6.0,88,0.00,,,0.25,Wunderground v.1.15,2013-06-29 00:19:00,
2013-06-28 19:24:00,71.9,68.2,29.62,WSW,250,4.0,6.0,88,0.00,,,0.25,Wunderground v.1.15,2013-06-29 00:24:00,
2013-06-28 19:29:00,71.7,68.0,29.62,WSW,241,5.0,6.0,88,0.00,,,0.25,Wunderground v.1.15,2013-06-29 00:29:00,
2013-06-28 19:34:00,71.7,68.0,29.62,WSW,242,3.0,5.0,88,0.00,,,0.25,Wunderground v.1.15,2013-06-29 00:34:00,
2013-06-28 19:39:00,72.0,67.6,29.63,WSW,242,3.0,5.0,86,0.00,,,0.25,Wunderground v.1.15,2013-06-29 00:39:00,
2013-06-28 19:44:00,72.1,67.7,29.63,WSW,242,3.0,4.0,86,0.00,,,0.25,Wunderground v.1.15,2013-06-29 00:44:00,
2013-06-28 19:49:00,71.7,67.6,29.63,WSW,242,4.0,5.0,87,0.00,,,0.25,Wunderground v.1.15,2013-06-29 00:49:00,
2013-06-28 19:54:00,71.5,67.4,29.63,WSW,242,4.0,5.0,87,0.00,,,0.25,Wunderground v.1.15,2013-06-29 00:54:00,
2013-06-28 19:59:00,71.2,67.1,29.63,WSW,242,5.0,5.0,87,0.00,,,0.25,Wunderground v.1.15,2013-06-29 00:59:00,
2013-06-28 20:04:00,71.1,67.4,29.64,WSW,242,5.0,6.0,88,0.00,,,0.25,Wunderground v.1.15,2013-06-29 01:04:00,
2013-06-28 20:09:00,71.0,67.6,29.64,WSW,242,6.0,7.0,89,0.00,,,0.25,Wunderground v.1.15,2013-06-29 01:09:00,
2013-06-28 20:14:00,70.9,67.5,29.64,WSW,242,5.0,6.0,89,0.00,,,0.25,Wunderground v.1.15,2013-06-29 01:14:00,
2013-06-28 20:19:00,70.8,67.4,29.64,WSW,242,5.0,6.0,89,0.00,,,0.25,Wunderground v.1.15,2013-06-29 01:19:00,
2013-06-28 20:24:00,70.9,67.2,29.64,WSW,242,6.0,6.0,88,0.00,,,0.25,Wunderground v.1.15,2013-06-29 01:24:00,
2013-06-28 20:29:00,71.0,67.3,29.64,SW,234,4.0,6.0,88,0.00,,,0.25,Wunderground v.1.15,2013-06-29 01:29:00,
2013-06-28 20:34:00,70.8,67.1,29.64,SW,230,4.0,6.0,88,0.00,,,0.25,Wunderground v.1.15,2013-06-29 01:34:00,
2013-06-28 20:39:00,70.9,66.5,29.64,WSW,241,7.0,7.0,86,0.00,,,0.25,Wunderground v.1.15,2013-06-29 01:39:00,
2013-06-28 20:44:00,71.0,66.9,29.64,WSW,237,7.0,8.0,87,0.00,,,0.25,Wunderground v.1.15,2013-06-29 01:44:00,
2013-06-28 20:49:00,71.0,67.3,29.64,WSW,237,6.0,8.0,88,0.00,,,0.25,Wunderground v.1.15,2013-06-29 01:49:00,
2013-06-28 20:54:00,71.1,67.4,29.64,WSW,248,9.0,9.0,88,0.00,,,0.25,Wunderground v.1.15,2013-06-29 01:54:00,
2013-06-28 20:59:00,71.0,67.9,29.64,WSW,240,8.0,9.0,90,0.00,,,0.25,Wunderground v.1.15,2013-06-29 01:59:00,
2013-06-28 21:04:00,71.0,67.9,29.64,SW,234,7.0,9.0,90,0.00,,,0.25,Wunderground v.1.15,2013-06-29 02:04:00,
2013-06-28 21:09:00,70.9,68.1,29.64,WSW,238,7.0,9.0,91,0.00,,,0.25,Wunderground v.1.15,2013-06-29 02:09:00,
2013-06-28 21:14:00,70.8,68.0,29.64,WSW,244,8.0,9.0,91,0.00,,,0.25,Wunderground v.1.15,2013-06-29 02:14:00,
2013-06-28 21:20:00,70.9,67.8,29.64,SW,227,6.0,7.0,90,0.00,,,0.25,Wunderground v.1.15,2013-06-29 02:20:00,
2013-06-28 21:25:00,70.8,67.7,29.64,SW,235,6.0,9.0,90,0.00,,,0.25,Wunderground v.1.15,2013-06-29 02:25:00,
2013-06-28 21:30:00,70.8,67.1,29.64,SW,236,6.0,9.0,88,0.00,,,0.25,Wunderground v.1.15,2013-06-29 02:30:00,
2013-06-28 21:35:00,71.1,67.0,29.64,SW,236,8.0,9.0,87,0.00,,,0.25,Wunderground v.1.15,2013-06-29 02:35:00,
2013-06-28 21:40:00,71.2,66.5,29.64,SW,235,8.0,9.0,85,0.00,,,0.25,Wunderground v.1.15,2013-06-29 02:40:00,
2013-06-28 21:45:00,71.3,66.2,29.64,SW,236,10.0,11.0,84,0.00,,,0.25,Wunderground v.1.15,2013-06-29 02:45:00,
2013-06-28 21:50:00,71.3,66.6,29.64,SW,236,8.0,9.0,85,0.00,,,0.25,Wunderground v.1.15,2013-06-29 02:50:00,
2013-06-28 21:55:00,71.2,66.8,29.65,SW,222,4.0,9.0,86,0.00,,,0.25,Wunderground v.1.15,2013-06-29 02:55:00,
2013-06-28 22:00:00,71.2,66.8,29.65,SW,230,4.0,10.0,86,0.00,,,0.25,Wunderground v.1.15,2013-06-29 03:00:00,
2013-06-28 22:05:00,71.2,66.5,29.65,SW,234,9.0,11.0,85,0.00,,,0.25,Wunderground v.1.15,2013-06-29 03:05:00,
2013-06-28 22:10:00,71.4,66.7,29.65,WSW,239,12.0,12.0,85,0.00,,,0.25,Wunderground v.1.15,2013-06-29 03:10:00,
2013-06-28 22:15:00,71.1,67.0,29.65,SW,226,9.0,12.0,87,0.00,,,0.25,Wunderground v.1.15,2013-06-29 03:15:00,
2013-06-28 22:20:00,70.8,66.7,29.65,SW,223,10.0,12.0,87,0.00,,,0.25,Wunderground v.1.15,2013-06-29 03:20:00,
2013-06-28 22:25:00,70.8,67.1,29.65,WSW,242,8.0,14.0,88,0.00,,,0.26,Wunderground v.1.15,2013-06-29 03:25:00,
2013-06-28 22:30:00,70.8,66.7,29.65,SW,217,12.0,15.0,87,0.00,,,0.26,Wunderground v.1.15,2013-06-29 03:30:00,
2013-06-28 22:35:00,70.9,66.8,29.65,WSW,246,8.0,15.0,87,0.00,,,0.26,Wunderground v.1.15,2013-06-29 03:35:00,
2013-06-28 22:40:00,70.4,67.3,29.66,WNW,302,7.0,10.0,90,0.00,,,0.26,Wunderground v.1.15,2013-06-29 03:40:00,
2013-06-28 22:45:00,68.7,66.3,29.66,WSW,247,11.0,15.0,92,0.69,,,0.31,Wunderground v.1.15,2013-06-29 03:45:00,
2013-06-28 22:50:00,67.6,65.5,29.66,WNW,297,12.0,23.0,93,0.12,,,0.32,Wunderground v.1.15,2013-06-29 03:50:00,
2013-06-28 22:55:00,66.7,64.3,29.66,WSW,248,12.0,23.0,92,0.08,,,0.33,Wunderground v.1.15,2013-06-29 03:55:00,
2013-06-28 23:01:00,66.7,62.4,29.66,WNW,296,12.0,15.0,86,0.07,,,0.33,Wunderground v.1.15,2013-06-29 04:01:00,
2013-06-28 23:06:00,67.6,62.3,29.64,WSW,240,9.0,15.0,83,0.07,,,0.34,Wunderground v.1.15,2013-06-29 04:06:00,
2013-06-28 23:11:00,68.5,62.8,29.64,WSW,240,9.0,12.0,82,0.06,,,0.34,Wunderground v.1.15,2013-06-29 04:11:00,
2013-06-28 23:16:00,68.5,63.5,29.63,South,191,6.0,13.0,84,0.04,,,0.34,Wunderground v.1.15,2013-06-29 04:16:00,
2013-06-28 23:21:00,68.1,63.1,29.63,SW,228,5.0,11.0,84,0.00,,,0.34,Wunderground v.1.15,2013-06-29 04:21:00,
2013-06-28 23:26:00,67.9,63.2,29.63,South,188,6.0,11.0,85,0.00,,,0.34,Wunderground v.1.15,2013-06-29 04:26:00,
2013-06-28 23:31:00,67.9,62.9,29.63,WSW,250,11.0,11.0,84,0.00,,,0.34,Wunderground v.1.15,2013-06-29 04:31:00,
2013-06-28 23:36:00,68.5,63.5,29.63,South,171,6.0,12.0,84,0.00,,,0.34,Wunderground v.1.15,2013-06-29 04:36:00,
2013-06-28 23:41:00,68.4,63.0,29.63,WSW,244,10.0,10.0,83,0.00,,,0.34,Wunderground v.1.15,2013-06-29 04:41:00,
2013-06-28 23:46:00,69.1,63.0,29.63,SW,219,9.0,12.0,81,0.00,,,0.34,Wunderground v.1.15,2013-06-29 04:46:00,
2013-06-28 23:51:00,70.0,63.5,29.63,SW,227,6.0,13.0,80,0.00,,,0.34,Wunderground v.1.15,2013-06-29 04:51:00,
2013-06-28 23:56:00,71.0,63.1,29.63,SW,231,14.0,14.0,76,0.00,,,0.34,Wunderground v.1.15,2013-06-29 04:56:00,